LNI231 OJAI-OEMA

Flight info

Callsign LNI231
Flight time N/A
Altitude 37000
Route QTR01 L513 MUNRA M449 WEJ M872 PMA BOVET1GXILS/17
Aircraft B738/M-SCB1D1A1R2/LB1

Departure

Time N/A
Airport Queen Alia International Airport (OJAI)

Arrival

Time 2026-04-24 19:05
Airport Prince Mohammad Bin Abdulaziz Airport (OEMA)
Time Latitude Longitude Altitude Speed Heading
2026-04-24 18:54 24.91339 39.22120 10601 ft 344 kts 109°
2026-04-24 18:55 24.90201 39.26970 10229 ft 310 kts 109°
2026-04-24 18:55 24.89675 39.29213 10109 ft 302 kts 109°
2026-04-24 18:55 24.89150 39.31429 9927 ft 296 kts 110°
2026-04-24 18:56 24.88627 39.33623 9634 ft 295 kts 109°
2026-04-24 18:56 24.88106 39.35806 9341 ft 294 kts 108°
2026-04-24 18:56 24.87591 39.37975 9047 ft 292 kts 108°
2026-04-24 18:56 24.87082 39.40129 8769 ft 290 kts 108°
2026-04-24 18:57 24.86577 39.42278 8482 ft 289 kts 108°
2026-04-24 18:57 24.86070 39.44413 8204 ft 287 kts 108°
2026-04-24 18:57 24.85566 39.46523 7904 ft 283 kts 108°
2026-04-24 18:57 24.85071 39.48603 7582 ft 276 kts 108°
2026-04-24 18:58 24.84582 39.50611 7348 ft 268 kts 108°
2026-04-24 18:58 24.84118 39.52594 7074 ft 266 kts 108°
2026-04-24 18:58 24.83812 39.53897 6904 ft 265 kts 107°
2026-04-24 18:58 24.83348 39.55859 6663 ft 264 kts 107°
2026-04-24 18:59 24.82886 39.57807 6414 ft 261 kts 107°
2026-04-24 18:59 24.82429 39.59721 6320 ft 260 kts 106°
2026-04-24 18:59 24.81966 39.61660 6236 ft 259 kts 107°
2026-04-24 18:59 24.81523 39.63514 6198 ft 240 kts 108°
2026-04-24 19:00 24.80777 39.65024 6171 ft 216 kts 140°
2026-04-24 19:00 24.79557 39.65721 5976 ft 206 kts 163°
2026-04-24 19:00 24.78208 39.66034 5848 ft 199 kts 168°
2026-04-24 19:00 24.76834 39.66301 5673 ft 201 kts 167°
2026-04-24 19:01 24.75434 39.66595 5468 ft 206 kts 166°
2026-04-24 19:01 24.74022 39.66889 5417 ft 208 kts 166°
2026-04-24 19:01 24.72567 39.67197 5165 ft 215 kts 167°
2026-04-24 19:01 24.71114 39.67498 4863 ft 211 kts 167°
2026-04-24 19:02 24.69717 39.67793 4587 ft 197 kts 167°
2026-04-24 19:02 24.68424 39.68066 4327 ft 183 kts 166°
2026-04-24 19:02 24.67249 39.68311 4109 ft 165 kts 166°
2026-04-24 19:02 24.66156 39.68542 3891 ft 157 kts 166°
2026-04-24 19:03 24.65086 39.68767 3701 ft 157 kts 166°
2026-04-24 19:03 24.64031 39.68988 3478 ft 151 kts 166°
2026-04-24 19:03 24.63003 39.69204 3219 ft 154 kts 167°
2026-04-24 19:03 24.61919 39.69410 3013 ft 161 kts 166°
2026-04-24 19:04 24.60800 39.69660 2762 ft 162 kts 169°
2026-04-24 19:04 24.59728 39.69895 2555 ft 156 kts 171°
2026-04-24 19:04 24.58637 39.70121 2330 ft 158 kts 170°
2026-04-24 19:04 24.57597 39.70343 2139 ft 152 kts 169°
2026-04-24 19:05 24.56704 39.70532 2112 ft 119 kts 169°
2026-04-24 19:05 24.56113 39.70664 2113 ft 56 kts 169°
2026-04-24 19:05 24.55721 39.70742 2108 ft 55 kts 169°
2026-04-24 19:05 24.55378 39.70831 2109 ft 45 kts 154°
2026-04-24 19:06 24.55211 39.70963 2108 ft 24 kts 137°
2026-04-24 19:06 24.55218 39.71034 2107 ft 8 kts 50°
2026-04-24 19:06 24.55233 39.71088 2105 ft 8 kts 86°
2026-04-24 19:06 24.55237 39.71145 2104 ft 8 kts 86°
2026-04-24 19:07 24.55247 39.71178 2105 ft 0 kts 57°
2026-04-24 19:08 24.55248 39.71180 2105 ft 1 kts 56°
2026-04-24 19:08 24.55253 39.71189 2104 ft 2 kts 56°
2026-04-24 19:08 24.55261 39.71201 2104 ft 0 kts 56°
2026-04-24 19:08 24.55261 39.71207 2105 ft 1 kts 89°
2026-04-24 19:09 24.55259 39.71225 2104 ft 3 kts 98°
2026-04-24 19:09 24.55253 39.71258 2104 ft 6 kts 107°
2026-04-24 19:09 24.55247 39.71298 2104 ft 5 kts 92°